Weather History for K08D - October, 2012

Change the Weather History Date:

Saturday, October 20, 2012

  Actual Average (KMOT) Record (KMOT)
Temperature  
Mean Temperature 49 °F 43 °F  
Max Temperature 66 °F 53 °F 80 °F (1947)
Min Temperature 32 °F 32 °F 11 °F (1905)
Degree Days  
Heating Degree Days 16 22  
Month to date heating degree days 361  
Since 1 July heating degree days 681  
Cooling Degree Days 0 0  
Month to date cooling degree days 0  
Year to date cooling degree days 444  
Moisture  
Dew Point 36 °F    
Average Humidity 72    
Maximum Humidity 100    
Minimum Humidity 35    
Precipitation  
Precipitation 0.00 in 0.03 in 0.57 in (1996)
Month to date precipitation 0.83  
Year to date precipitation 15.73  
Sea Level Pressure  
Sea Level Pressure 29.53 in    
Wind  
Wind Speed 6 mph (SW)    
Max Wind Speed 15 mph    
Max Gust Speed 20 mph    
Visibility 10 miles    
Events      
T = Trace of Precipitation, MM = Missing Value Source: NWS Daily Summary

Daily Weather History Graph

Daily Weather History Graph

Search for Another Location

Airport or City:

Trip Planner

Search our weather history database for the weather conditions in past years. The results will help you decide how hot, cold, wet, or windy it might be!

Date:

Astronomy

Oct. 20, 2012 Rise Set
Actual Time 8:17 AM CDT 6:50 PM CDT
Civil Twilight 7:45 AM CDT 7:21 PM CDT
Nautical Twilight 7:09 AM CDT 7:58 PM CDT
Astronomical Twilight 6:33 AM CDT 8:34 PM CDT
Moon 2:09 PM CDT (10/20) 11:26 PM CDT (10/20)
Length of Visible Light 11h 36m
Length of Day
10h 32m
Waxing Crescent, 34% of the Moon is Illuminated
Oct 20
Waxing Crescent
Oct 21
First Quarter
Oct 29
Full
Nov 6
Last Quarter
Nov 13
New

Hourly Weather History & Observations

Time (CDT) Temp. Windchill Dew Point Humidity Pressure Visibility Wind Dir Wind Speed Gust Speed Precip Events Conditions
12:15 AM 37.4 °F 32.1 °F 32.0 °F 81% 29.59 in 10.0 mi SSE 6.9 mph - N/A   Clear
12:35 AM 37.4 °F 32.1 °F 33.8 °F 87% 29.58 in 10.0 mi SE 6.9 mph - N/A   Clear
12:55 AM 37.4 °F 31.4 °F 33.8 °F 87% 29.57 in 10.0 mi SSE 8.1 mph - N/A   Clear
1:15 AM 37.4 °F 31.4 °F 33.8 °F 87% 29.57 in 10.0 mi SSE 8.1 mph - N/A   Clear
1:35 AM 35.6 °F 29.9 °F 33.8 °F 93% 29.56 in 10.0 mi SSE 6.9 mph - N/A   Partly Cloudy
1:55 AM 35.6 °F 31.7 °F 32.0 °F 87% 29.56 in 10.0 mi SSE 4.6 mph - N/A   Clear
2:15 AM 35.6 °F 31.7 °F 32.0 °F 87% 29.55 in 10.0 mi South 4.6 mph - N/A   Clear
2:35 AM 35.6 °F 30.7 °F 32.0 °F 87% 29.55 in 10.0 mi South 5.8 mph - N/A   Clear
2:55 AM 33.8 °F 28.6 °F 32.0 °F 93% 29.54 in 10.0 mi SE 5.8 mph - N/A   Clear
3:15 AM 33.8 °F 30.8 °F 32.0 °F 93% 29.54 in 10.0 mi ESE 3.5 mph - N/A   Clear
3:35 AM 32.0 °F 26.4 °F 32.0 °F 100% 29.54 in 10.0 mi SSE 5.8 mph - N/A   Clear
3:55 AM 32.0 °F 27.5 °F 32.0 °F 100% 29.54 in 10.0 mi South 4.6 mph - N/A   Clear
4:15 AM 32.0 °F 28.7 °F 32.0 °F 100% 29.53 in 10.0 mi South 3.5 mph - N/A   Clear
4:35 AM 32.0 °F - 32.0 °F 100% 29.53 in 10.0 mi Calm Calm - N/A   Scattered Clouds
4:55 AM 32.0 °F 27.5 °F 32.0 °F 100% 29.52 in 10.0 mi SSE 4.6 mph - N/A   Scattered Clouds
5:15 AM 32.0 °F 28.7 °F 32.0 °F 100% 29.51 in 10.0 mi South 3.5 mph - N/A   Clear
5:35 AM 33.8 °F - 32.0 °F 93% 29.52 in 10.0 mi Calm Calm - N/A   Clear
5:55 AM 33.8 °F 29.6 °F 32.0 °F 93% 29.52 in 10.0 mi NE 4.6 mph - N/A   Clear
6:15 AM 33.8 °F - 32.0 °F 93% 29.51 in 10.0 mi Calm Calm - N/A   Partly Cloudy
6:35 AM 33.8 °F - 32.0 °F 93% 29.51 in 10.0 mi Calm Calm - N/A   Partly Cloudy
6:55 AM 33.8 °F - 32.0 °F 93% 29.51 in 10.0 mi Calm Calm - N/A   Clear
7:15 AM 32.0 °F - 32.0 °F 100% 29.52 in 10.0 mi Calm Calm - N/A   Clear
7:35 AM 32.0 °F - 32.0 °F 100% 29.52 in 10.0 mi Calm Calm - N/A   Clear
7:55 AM 33.8 °F 29.6 °F 33.8 °F 100% 29.51 in 10.0 mi South 4.6 mph - N/A   Partly Cloudy
8:15 AM 32.0 °F - 32.0 °F 100% 29.51 in 10.0 mi Calm Calm - N/A   Partly Cloudy
8:35 AM 32.0 °F - 32.0 °F 100% 29.51 in 10.0 mi Calm Calm - N/A   Clear
8:55 AM 33.8 °F 30.8 °F 33.8 °F 100% 29.51 in 10.0 mi North 3.5 mph - N/A   Clear
9:15 AM 35.6 °F - 35.6 °F 100% 29.51 in 10.0 mi Calm Calm - N/A   Clear
9:35 AM 37.4 °F - 37.4 °F 100% 29.51 in 10.0 mi Calm Calm - N/A   Clear
9:55 AM 41.0 °F 39.0 °F 37.4 °F 87% 29.52 in 10.0 mi SW 3.5 mph - N/A   Clear
10:15 AM 42.8 °F 40.1 °F 39.2 °F 87% 29.51 in 10.0 mi SSW 4.6 mph - N/A   Clear
10:35 AM 46.4 °F 43.5 °F 39.2 °F 76% 29.51 in 10.0 mi SSW 5.8 mph - N/A   Clear
10:55 AM 46.4 °F 42.9 °F 39.2 °F 76% 29.51 in 10.0 mi SW 6.9 mph - N/A   Clear
11:15 AM 51.8 °F - 39.2 °F 62% 29.51 in 10.0 mi SW 4.6 mph - N/A   Mostly Cloudy
11:35 AM 55.4 °F - 39.2 °F 54% 29.51 in 10.0 mi SW 3.5 mph - N/A   Overcast
11:55 AM 57.2 °F - 39.2 °F 51% 29.51 in 10.0 mi SW 8.1 mph - N/A   Mostly Cloudy
12:15 PM 57.2 °F - 37.4 °F 48% 29.51 in 10.0 mi SSW 8.1 mph - N/A   Mostly Cloudy
12:35 PM 59.0 °F - 37.4 °F 45% 29.50 in 10.0 mi SW 9.2 mph - N/A   Partly Cloudy
12:55 PM 59.0 °F - 37.4 °F 45% 29.51 in 10.0 mi WSW 9.2 mph - N/A   Scattered Clouds
1:15 PM 60.8 °F - 37.4 °F 42% 29.50 in 10.0 mi WSW 9.2 mph - N/A   Scattered Clouds
1:35 PM 60.8 °F - 37.4 °F 42% 29.49 in 10.0 mi West 6.9 mph - N/A   Scattered Clouds
1:55 PM 62.6 °F - 37.4 °F 39% 29.49 in 10.0 mi SW 11.5 mph - N/A   Scattered Clouds
2:15 PM 62.6 °F - 37.4 °F 39% 29.50 in 10.0 mi WSW 13.8 mph - N/A   Scattered Clouds
2:35 PM 62.6 °F - 37.4 °F 39% 29.49 in 10.0 mi WSW 9.2 mph - N/A   Mostly Cloudy
2:55 PM 64.4 °F - 37.4 °F 37% 29.49 in 10.0 mi SW 15.0 mph - N/A   Scattered Clouds
3:15 PM 64.4 °F - 37.4 °F 37% 29.49 in 10.0 mi WSW 13.8 mph 19.6 mph N/A   Clear
3:35 PM 64.4 °F - 37.4 °F 37% 29.49 in 10.0 mi West 12.7 mph - N/A   Clear
4:15 PM 64.4 °F - 37.4 °F 37% 29.50 in 10.0 mi West 13.8 mph 19.6 mph N/A   Partly Cloudy
4:35 PM 66.2 °F - 37.4 °F 35% 29.50 in 10.0 mi West 12.7 mph - N/A   Partly Cloudy
4:55 PM 64.4 °F - 37.4 °F 37% 29.51 in 10.0 mi WSW 11.5 mph - N/A   Clear
5:15 PM 64.4 °F - 37.4 °F 37% 29.51 in 10.0 mi WSW 10.4 mph - N/A   Clear
5:35 PM 64.4 °F - 37.4 °F 37% 29.51 in 10.0 mi West 9.2 mph - N/A   Clear
5:55 PM 62.6 °F - 37.4 °F 39% 29.52 in 10.0 mi West 6.9 mph - N/A   Clear
6:15 PM 60.8 °F - 37.4 °F 42% 29.52 in 10.0 mi West 6.9 mph - N/A   Clear
6:35 PM 57.2 °F - 37.4 °F 48% 29.53 in 10.0 mi West 5.8 mph - N/A   Clear
6:55 PM 53.6 °F - 37.4 °F 54% 29.53 in 10.0 mi West 4.6 mph - N/A   Clear
7:15 PM 51.8 °F - 37.4 °F 58% 29.54 in 10.0 mi West 6.9 mph - N/A   Clear
7:35 PM 48.2 °F - 37.4 °F 66% 29.55 in 10.0 mi WSW 4.6 mph - N/A   Clear
7:55 PM 48.2 °F - 37.4 °F 66% 29.56 in 10.0 mi West 5.8 mph - N/A   Clear
8:15 PM 48.2 °F - 37.4 °F 66% 29.57 in 10.0 mi WNW 6.9 mph - N/A   Clear
8:35 PM 46.4 °F 45.2 °F 37.4 °F 71% 29.57 in 10.0 mi West 3.5 mph - N/A   Clear
8:55 PM 46.4 °F 42.9 °F 37.4 °F 71% 29.57 in 10.0 mi NW 6.9 mph - N/A   Clear
9:15 PM 44.6 °F 41.4 °F 37.4 °F 76% 29.58 in 10.0 mi NW 5.8 mph - N/A   Clear
9:35 PM 46.4 °F 43.5 °F 37.4 °F 71% 29.59 in 10.0 mi NW 5.8 mph - N/A   Clear
9:55 PM 46.4 °F 43.5 °F 35.6 °F 66% 29.60 in 10.0 mi NNW 5.8 mph - N/A   Scattered Clouds
10:15 PM 46.4 °F - 35.6 °F 66% 29.60 in 10.0 mi Calm Calm - N/A   Mostly Cloudy
10:35 PM 44.6 °F - 37.4 °F 76% 29.61 in 10.0 mi Calm Calm - N/A   Mostly Cloudy
10:55 PM 46.4 °F 44.3 °F 37.4 °F 71% 29.62 in 10.0 mi NW 4.6 mph - N/A   Overcast
11:35 PM 44.6 °F 42.2 °F 37.4 °F 76% 29.63 in 10.0 mi West 4.6 mph - N/A   Mostly Cloudy
11:55 PM 44.6 °F 41.4 °F 35.6 °F 71% 29.64 in 10.0 mi NW 5.8 mph - N/A   Partly Cloudy